Stations météo

réclame
Mon MeteoGroup
Topcliffe, Grande-Bretagne (3265): Température de l'air & dewpoint: 22.05.2018 11:00:00 - 28.05.2018 11:00:00 (BST)Topcliffe, Grande-Bretagne (3265): Vitesse du vent & gusts: 22.05.2018 11:00:00 - 28.05.2018 11:00:00 (BST)Topcliffe, Grande-Bretagne (3265): Direction du vent: 22.05.2018 11:00:00 - 28.05.2018 11:00:00 (BST)Topcliffe, Grande-Bretagne (3265): reduced air pressure: 22.05.2018 11:00:00 - 28.05.2018 11:00:00 (BST)Topcliffe, Grande-Bretagne (3265): visibility: 22.05.2018 11:00:00 - 28.05.2018 11:00:00 (BST)Topcliffe, Grande-Bretagne (3265): Quantités de précipitations: 22.05.2018 11:00:00 - 28.05.2018 11:00:00 (BST)
Date & Time tt [°C] td [°C] ff [km/h] ff [knt] fx [km/h] fx [knt] dd ppp [hPa] vv [km] rr [mm]
28.05.2018 11:00:00 - - - - - - - - - -
28.05.2018 10:00:00 15,5 13,3 22 12 - - NNW 1022,1 7 0,0
28.05.2018 09:00:00 14,1 12,6 16 9 - - NNW 1021,8 6 0,0
28.05.2018 08:00:00 13,6 12,6 18 10 - - NNW 1021,8 3,9 0,0
28.05.2018 07:00:00 13,3 12,7 18 10 - - NNW 1021,3 3,5 0,0
28.05.2018 06:00:00 13,0 12,7 15 8 - - N 1020,9 3,0 0,0
28.05.2018 05:00:00 13,0 12,6 15 8 - - N 1020,5 1,9 0,0
28.05.2018 04:00:00 13,0 12,6 16 9 - - N 1020,2 2,6 0,0
28.05.2018 03:00:00 12,4 11,8 13 7 - - N 1020,5 3,4 0,0
28.05.2018 02:00:00 12,2 11,8 9 5 - - WNW 1020,7 4,1 0,0
28.05.2018 01:00:00 11,8 11,4 11 6 - - N 1021,0 1,4 0,0
28.05.2018 00:00:00 12,0 11,1 13 7 - - NW 1020,4 5 0,0
27.05.2018 23:00:00 12,8 11,4 13 7 - - NNW 1020,2 6 0,0
27.05.2018 22:00:00 14,1 11,8 4 2 - - ESE 1020,5 15 0,0
27.05.2018 21:00:00 16,1 12,2 9 5 - - E 1020,1 26 0,0
27.05.2018 20:00:00 18,7 12,6 16 9 - - E 1019,7 40 0,0
27.05.2018 19:00:00 20,3 12,8 22 12 - - E 1019,1 50 0,0
27.05.2018 18:00:00 21,0 12,3 26 14 - - E 1019,0 50 0,0
27.05.2018 17:00:00 21,6 12,9 26 14 - - E 1019,5 18 0,0
27.05.2018 16:00:00 22,1 12,5 31 17 - - E 1019,6 45 0,0
27.05.2018 15:00:00 22,5 12,7 34 18 46 25 E 1019,9 40 0,0
27.05.2018 14:00:00 22,8 13,4 28 15 46 25 ESE 1020,1 45 0,0
27.05.2018 13:00:00 23,1 13,5 29 16 - - E 1020,4 28 0,0
27.05.2018 12:00:00 22,7 13,6 28 15 - - E 1020,9 40 0,0
27.05.2018 11:00:00 22,2 14,1 24 13 - - E 1021,3 30 0,0
27.05.2018 10:00:00 18,1 13,9 15 8 - - NNW 1021,5 23 0,0
27.05.2018 09:00:00 14,6 12,1 18 10 - - NNW 1021,8 12 0,0
27.05.2018 08:00:00 13,1 11,5 22 12 - - NNW 1022,0 10 0,0
27.05.2018 07:00:00 11,9 10,8 24 13 - - NNW 1022,4 6 0,0
27.05.2018 06:00:00 11,1 10,4 22 12 - - NNW 1022,5 4,2 0,0
27.05.2018 05:00:00 11,0 10,3 24 13 - - NNW 1023,1 4,1 0,0
27.05.2018 04:00:00 11,0 10,4 24 13 - - NNW 1023,2 4,3 0,0
27.05.2018 03:00:00 10,9 9,9 22 12 - - NNW 1023,6 6 0,0
27.05.2018 02:00:00 11,0 9,8 22 12 - - N 1024,1 6 0,0
27.05.2018 01:00:00 11,0 9,8 22 12 - - NNW 1024,7 6 0,0
27.05.2018 00:00:00 10,9 10,0 26 14 - - N 1024,9 5 0,0
26.05.2018 23:00:00 11,1 10,0 22 12 - - N 1025,5 6 0,0
26.05.2018 22:00:00 11,3 10,0 21 11 - - N 1025,4 7 0,0
26.05.2018 21:00:00 12,1 10,2 26 14 - - N 1024,6 9 0,0
26.05.2018 20:00:00 13,4 10,5 31 17 - - N 1024,3 9 0,0
26.05.2018 19:00:00 15,3 10,8 24 13 - - N 1024,7 17 0,0
26.05.2018 18:00:00 17,5 11,8 26 14 - - N 1024,7 18 0,0
26.05.2018 17:00:00 19,0 11,4 18 10 - - N 1025,0 40 0,0
26.05.2018 16:00:00 21,4 11,7 22 12 - - ENE 1025,2 35 0,0
26.05.2018 15:00:00 21,5 10,1 15 8 - - E 1025,4 30 0,0
26.05.2018 14:00:00 17,7 13,2 15 8 - - NNW 1025,8 13 0,0
26.05.2018 13:00:00 19,4 10,7 11 6 - - NE 1025,9 50 0,0
26.05.2018 12:00:00 18,3 9,8 16 9 - - ENE 1025,7 30 0,0
26.05.2018 11:00:00 18,2 9,1 18 10 - - E 1025,5 50 0,0
26.05.2018 10:00:00 15,8 11,9 18 10 - - NNW 1025,3 10 0,0
26.05.2018 09:00:00 13,9 11,7 21 11 - - N 1025,1 11 0,0
26.05.2018 08:00:00 12,5 10,9 22 12 - - NNW 1024,9 13 0,0
26.05.2018 07:00:00 11,2 10,3 22 12 - - NNW 1024,7 8 0,0
26.05.2018 06:00:00 11,1 10,2 22 12 - - NNW 1024,4 8 0,0
26.05.2018 05:00:00 10,9 10,4 15 8 - - NW 1024,2 5 0,0
26.05.2018 04:00:00 11,0 10,4 21 11 - - NNW 1023,8 5 0,0
26.05.2018 03:00:00 11,3 10,8 18 10 - - NNW 1023,9 4,8 0,0
26.05.2018 02:00:00 11,4 11,0 21 11 - - NNW 1024,2 2,6 0,0
26.05.2018 01:00:00 11,2 10,9 26 14 - - N 1024,2 2,8 0,0
26.05.2018 00:00:00 11,2 10,8 21 11 - - N 1024,2 3,4 0,0
25.05.2018 23:00:00 11,3 10,9 21 11 - - N 1023,9 3,4 0,0
25.05.2018 22:00:00 11,4 11,0 26 14 - - N 1023,4 3,3 0,0
25.05.2018 21:00:00 11,8 11,2 22 12 - - N 1023,0 4,2 0,2
25.05.2018 20:00:00 11,8 11,4 21 11 - - NNW 1022,4 2,2 3,6
25.05.2018 19:00:00 11,8 11,2 16 9 - - NNW 1022,2 7 2,8
25.05.2018 18:00:00 12,6 11,7 15 8 - - NNW 1021,9 8 0,0
25.05.2018 17:00:00 12,8 11,5 15 8 - - N 1021,9 10 0,0
25.05.2018 16:00:00 12,1 11,2 22 12 - - NNW 1021,8 15 0,0
25.05.2018 15:00:00 11,7 11,0 24 13 - - N 1021,7 6 1,6
25.05.2018 14:00:00 11,6 10,8 24 13 - - N 1021,8 6 1,0
25.05.2018 13:00:00 11,2 10,4 28 15 - - N 1022,1 5 1,6
25.05.2018 12:00:00 11,0 10,1 22 12 - - N 1022,3 5 0,8
25.05.2018 11:00:00 10,7 9,7 28 15 - - N 1021,9 8 0,0
25.05.2018 10:00:00 10,7 9,2 18 10 - - N 1022,5 8 0,0
25.05.2018 09:00:00 10,5 9,1 28 15 - - NNW 1021,9 9 0,0
25.05.2018 08:00:00 10,3 9,2 26 14 - - N 1022,0 9 0,0
25.05.2018 07:00:00 9,9 9,1 26 14 - - N 1021,6 5 0,0
25.05.2018 06:00:00 9,9 9,4 28 15 - - N 1021,7 4,5 0,0
25.05.2018 05:00:00 10,0 9,6 24 13 - - N 1021,6 3,4 0,0
25.05.2018 04:00:00 9,9 9,6 29 16 - - NNW 1021,7 1,9 0,0
25.05.2018 03:00:00 9,8 9,2 34 18 48 26 NNW 1022,0 4,5 0,0
25.05.2018 02:00:00 9,8 9,3 28 15 - - NNW 1022,5 4,3 0,0
25.05.2018 01:00:00 9,3 8,9 24 13 - - N 1022,9 3,3 0,0
25.05.2018 00:00:00 9,6 8,8 28 15 - - NNW 1023,1 6 0,0
24.05.2018 23:00:00 9,9 9,0 26 14 - - NNW 1023,2 5 0,0
24.05.2018 22:00:00 10,2 9,1 24 13 - - NNW 1023,3 5 0,0
24.05.2018 21:00:00 10,8 9,1 21 11 - - NNW 1023,1 10 0,0
24.05.2018 20:00:00 12,5 9,4 22 12 - - NNW 1022,7 22 0,0
24.05.2018 19:00:00 14,9 10,1 22 12 - - NNW 1022,5 22 0,0
24.05.2018 18:00:00 16,4 10,8 22 12 - - NNW 1022,6 26 0,0
24.05.2018 17:00:00 16,9 11,0 26 14 - - NNW 1022,7 30 0,0
24.05.2018 16:00:00 17,5 11,8 24 13 - - NNW 1023,1 10 0,0
24.05.2018 15:00:00 16,3 10,7 24 13 - - NNW 1023,6 10 0,0
24.05.2018 14:00:00 15,7 10,4 24 13 - - NNW 1024,2 10 0,0
24.05.2018 13:00:00 15,7 10,3 22 12 - - NNW 1024,8 10 0,0
24.05.2018 12:00:00 14,5 9,7 22 12 - - NNW 1025,4 29 0,0
24.05.2018 11:00:00 13,1 9,0 21 11 - - NNW 1025,7 10 0,0
24.05.2018 10:00:00 11,9 8,4 22 12 - - N 1026,1 15 0,0
24.05.2018 09:00:00 10,5 7,8 26 14 - - NNW 1026,5 15 0,0
24.05.2018 08:00:00 9,4 7,5 22 12 - - NNW 1026,5 12 0,0
24.05.2018 07:00:00 8,7 7,4 18 10 - - NNW 1026,7 12 0,0
24.05.2018 06:00:00 8,3 7,2 15 8 - - N 1026,9 10 0,0
24.05.2018 05:00:00 8,2 7,1 16 9 - - N 1027,1 9 0,0
24.05.2018 04:00:00 8,2 7,0 16 9 - - N 1027,4 9 0,0
24.05.2018 03:00:00 8,2 7,0 16 9 - - N 1027,8 9 0,0
24.05.2018 02:00:00 8,2 7,0 16 9 - - N 1028,0 10 0,0
24.05.2018 01:00:00 7,8 6,8 15 8 - - NNW 1028,2 10 0,0
24.05.2018 00:00:00 7,9 6,7 11 6 - - NNW 1028,4 12 0,0
23.05.2018 23:00:00 8,3 7,1 15 8 - - NW 1028,4 12 0,0
23.05.2018 22:00:00 8,7 7,0 15 8 - - NNW 1028,3 13 0,0
23.05.2018 21:00:00 10,0 7,4 15 8 - - NNW 1028,0 22 0,0
23.05.2018 20:00:00 12,5 8,1 16 9 - - NNW 1027,5 40 0,0
23.05.2018 19:00:00 14,0 8,5 18 10 - - N 1027,2 40 0,0
23.05.2018 18:00:00 14,4 8,6 22 12 - - N 1026,9 40 0,0
23.05.2018 17:00:00 15,2 8,8 22 12 - - N 1027,0 10 0,0
23.05.2018 16:00:00 16,2 9,9 24 13 - - N 1027,2 10 0,0
23.05.2018 15:00:00 16,6 10,5 21 11 - - NNW 1027,5 10 0,0
23.05.2018 14:00:00 15,7 9,5 24 13 - - NNW 1027,7 21 0,0
23.05.2018 13:00:00 15,6 10,5 16 9 - - N 1027,8 10 0,0
23.05.2018 12:00:00 13,9 9,2 16 9 - - N 1028,0 10 0,0
23.05.2018 11:00:00 12,2 8,1 18 10 - - N 1028,1 10 0,0
23.05.2018 10:00:00 11,9 8,1 15 8 - - N 1028,0 10 0,0
23.05.2018 09:00:00 11,0 7,9 15 8 - - NNE 1027,7 10 0,0
23.05.2018 08:00:00 10,2 7,6 18 10 - - N 1027,4 10 0,0
23.05.2018 07:00:00 10,0 7,4 22 12 - - N 1027,0 19 0,0
23.05.2018 06:00:00 9,8 7,2 24 13 - - N 1026,5 15 0,0
23.05.2018 05:00:00 9,7 7,1 18 10 - - NNW 1026,1 15 0,0
23.05.2018 04:00:00 9,8 7,2 16 9 - - N 1025,9 16 0,0
23.05.2018 03:00:00 9,8 7,2 22 12 - - NNW 1025,7 14 0,0
23.05.2018 02:00:00 9,8 7,1 21 11 - - N 1025,5 19 0,0
23.05.2018 01:00:00 9,9 7,0 21 11 - - N 1025,7 18 0,0
23.05.2018 00:00:00 10,1 7,2 18 10 - - N 1025,8 16 0,0
22.05.2018 23:00:00 10,2 7,3 18 10 - - N 1025,4 15 0,0
22.05.2018 22:00:00 10,3 7,1 22 12 - - N 1024,9 17 0,0
22.05.2018 21:00:00 10,3 7,1 31 17 50 27 N 1023,9 22 0,0
22.05.2018 20:00:00 10,6 7,3 34 18 46 25 N 1023,6 17 0,0
22.05.2018 19:00:00 11,2 7,6 29 16 46 25 N 1023,4 18 0,0
22.05.2018 18:00:00 12,0 7,9 29 16 - - N 1023,2 35 0,0
22.05.2018 17:00:00 13,5 8,4 26 14 - - N 1022,9 45 0,0
22.05.2018 16:00:00 13,0 8,0 29 16 46 25 N 1022,8 10 0,0
22.05.2018 15:00:00 12,6 8,3 29 16 - - N 1022,7 10 0,0
22.05.2018 14:00:00 12,9 8,9 34 18 46 25 N 1022,5 10 0,0
22.05.2018 13:00:00 12,5 8,4 29 16 - - N 1022,3 10 0,0
22.05.2018 12:00:00 12,1 8,8 31 17 50 27 N 1021,9 10 0,0
22.05.2018 11:00:00 11,8 8,8 31 17 52 28 N 1021,9 10 0,0

tt = Température de l'air
td = dewpoint
ff = Vitesse du vent
fx = gusts
dd = Direction du vent
ppp = reduced air pressure
vv = visibility
rr = Quantités de précipitations

stations d'obs. à proximité